Location: Caltech
(34.1382°N, 118.1253°W)
Time: 18:59:39
(UTC-07:00)

Oscar 10/S400 - Visible Passes

Search period start: 03 May 2015 00:00
Search period end: 13 May 2015 00:00
Orbit: 3852 x 35595 km, 25.8° (Epoch: 26 April)

Date Brightness Start Highest point End Pass type
(mag) Time Alt. Az. Time Alt. Az. Time Alt. Az.
07 May ? 05:28:16 10° W 05:45:52 56° SSW 06:34:30 10° SE visible
08 May ? 04:43:24 10° W 05:01:04 60° SSW 05:38:34 10° ESE visible
09 May ? 03:58:10 10° W 04:16:32 63° S 04:46:46 10° ESE visible
10 May ? 03:12:22 10° W 03:32:08 66° S 03:57:28 10° ESE visible
11 May ? 02:25:44 10° W 02:47:49 68° S 03:09:50 10° ESE visible
12 May ? 01:37:51 10° W 02:03:30 69° S 02:23:19 10° E visible
